This is the latest recevied weather packets stored in our database for station/object KE5WTH-14. If no packets are shown the sender has not sent any weather packets the latest 10 day(s).
| Time | Temp. | Humidity | Pressure | Rain* | Wind** | Luminosity | Snow |
|---|---|---|---|---|---|---|---|
| 1778366061 | 30.56° C | 59% | 1008.4 hPa | 0 mm | - | 512 W/m² | - |
| 1778366022 | 30.56° C | 60% | 1008.4 hPa | 0 mm | - | 519 W/m² | - |
| 1778365991 | 30.56° C | 59% | 1008.4 hPa | 0 mm | - | 519 W/m² | - |
| 1778365959 | 30.56° C | 58% | 1008.4 hPa | 0 mm | - | 522 W/m² | - |
| 1778365931 | 30.56° C | 59% | 1008.4 hPa | 0 mm | - | 529 W/m² | - |
| 1778365778 | 30.56° C | 59% | 1008.4 hPa | 0 mm | - | 529 W/m² | - |
| 1778365748 | 30.56° C | 57% | 1008.4 hPa | 0 mm | - | 536 W/m² | - |
| 1778365712 | 30.56° C | 60% | 1008.4 hPa | 0 mm | - | 543 W/m² | - |
| 1778365684 | 30.56° C | 57% | 1008.3 hPa | 0 mm | - | 543 W/m² | - |
| 1778365654 | 30.56° C | 59% | 1008.4 hPa | 0 mm | - | 545 W/m² | - |
| 1778365622 | 30.56° C | 58% | 1008.3 hPa | 0 mm | - | 549 W/m² | - |
| 1778365591 | 30.56° C | 59% | 1008.3 hPa | 0 mm | - | 550 W/m² | - |
| 1778365558 | 30.56° C | 58% | 1008.4 hPa | 0 mm | - | 554 W/m² | - |
| 1778365531 | 30.56° C | 59% | 1008.4 hPa | 0 mm | - | 554 W/m² | - |
| 1778365504 | 30.56° C | 59% | 1008.3 hPa | 0 mm | - | 557 W/m² | - |
| 1778365478 | 30.56° C | 60% | 1008.4 hPa | 0 mm | - | 561 W/m² | - |
| 1778365448 | 30.56° C | 59% | 1008.4 hPa | 0 mm | - | 570 W/m² | - |
| 1778365415 | 30.56° C | 58% | 1008.4 hPa | 0 mm | - | 570 W/m² | - |
| 1778365387 | 30.56° C | 59% | 1008.4 hPa | 0 mm | - | 580 W/m² | - |
| 1778365356 | 30.56° C | 60% | 1008.4 hPa | 0 mm | - | 584 W/m² | - |
| 1778365327 | 30.56° C | 59% | 1008.4 hPa | 0 mm | - | 589 W/m² | - |
| 1778365303 | 30.56° C | 59% | 1008.4 hPa | 0 mm | - | 589 W/m² | - |
| 1778365271 | 30.56° C | 60% | 1008.4 hPa | 0 mm | - | 593 W/m² | - |
| 1778365240 | 30.56° C | 61% | 1008.4 hPa | 0 mm | - | 594 W/m² | - |
| 1778365210 | 30.56° C | 60% | 1008.4 hPa | 0 mm | - | 600 W/m² | - |
* Rain latest hour (hover to see other rain measurements)
** Current wind speed in m/s (hover to see current wind gust speed)